{"data":{"norad_id":62742,"epoch":"2026-05-24T04:22:22.122336Z","epoch_age_seconds":145858,"freshness":"FRESH","line1":"1 62742U 25014H   26144.18220049  .00010118  00000+0  37661-3 0  9992","line2":"2 62742  43.0015  87.9882 0001528 267.1924  92.8753 15.27586404 74800","mean_motion":15.27586404,"eccentricity":0.0001528,"inclination_deg":43.0015,"raan_deg":87.9882,"arg_perigee_deg":267.1924,"mean_anomaly_deg":92.8753,"bstar":0.00037661,"rev_number":7480,"period_min":94.266353525362,"perigee_km":481.98153392141,"apogee_km":484.07830653223,"semimajor_km":6861.1669202268,"source":"CELESTRAK","updated_at":"2026-05-25T13:38:19.739565Z"}}